map of LAD home
Great Circle Mapper logo
LAD - Airport
Location
City:  Luanda, Angola
Name:Aeroporto 4 de Fevereiro
ICAO / IATA:FNLU / LAD

Details
Type:Airport (Aerodrome, Airfield)
Use:Public/Civil, Military, International (customs port of entry)
Latitude:851'30"S (-8.858374)
Longitude:1313'52"E (13.231178)
Datum:other
Elevation:243 ft (74 m)
Runways:2
Longest:12190 × 148 ft (3716 × 45 m), paved

Time
Time Zone:UTC+1
Local Time:

Weather
METAR:FNLU 310000Z 19006KT 9999 BKN023 21/19 Q1017 NOSIG
TAF:FNLU 302300Z 3100/0106 17005KT 9999 BKN023
TEMPO 3105/3109 VRB03KT 5000 FEW015 OVC020
BECMG 3112/3114 29010KT SCT025 PROB30
TEMPO 3115/3120 CAVOK
BECMG 3118/3120 21005KT

Related Locations
Nearby:
Farthest:PLPA: 12062 mi / 19412 km
Palmyra Island Atoll [Palmyra Airport (Cooper)], UM

Find:

   beyond  
but within

Other Information
Maps:
NOTAMs:
Links:
Sources:

  
flag of Angola   

Sectional Chart

Flight Planning
at skyvector.com

Satellite Image

Google Maps Satellite View

 

Copyright © 2004-2014 Karl L. Swartz. All rights reserved.
The Great Circle Mapper name and logo are trademarks of the Great Circle Mapper.
All other trademarks mentioned herein belong to their respective owners.
Please see credits for attibutions and further copyright information.

  Follow gcmap on Facebook Follow gcmap on Twitter

hCard Microformat

Geo Microformat